Regional Weather Roundup
Issued by NWS Jackson, KY

Home | Current Version | Previous Version | Text Only | Print | Product List | Glossary Off
Versions: 1 2 3 4 5 6 7 8 9 10 11 12 13 14 15 16 17 18 19 20 21 22 23 24 25 26 27

000
ASUS43 KJKL 201710
RWRJKL

EAST KENTUCKY HOURLY WEATHER ROUNDUP
NATIONAL WEATHER SERVICE JACKSON KY
100 PM EDT SUN AUG 20 2017

NOTE: "FAIR" INDICATES FEW OR NO CLOUDS BELOW 12,000 FEET WITH
NO SIGNIFICANT WEATHER AND/OR OBSTRUCTIONS TO VISIBILITY.

* THESE REPORTS ARE NOT UNDER NWS QUALITY CONTROL AND MAY NOT
  REPORT WEATHER SUCH AS PRECIPITATION AND FOG.

KYZ079-080-083-085-087-088-110-112-115-119-120-201800
...EASTERN KENTUCKY...

CITY           SKY/WX    TMP DP  RH WIND       PRES   REMARKS
JACKSON        SUNNY     83  69  62 VRB5      30.16S
LONDON         SUNNY     85  66  53 CALM      30.16R
SOMERSET*      SUNNY     84  64  51 CALM      30.15S
MONTICELLO*    SUNNY     88  70  55 N8        30.16S HX  93
WILLIAMSBURG*  SUNNY     84  68  58 SW3       30.16R
MIDDLESBORO*   MOSUNNY   85  69  57 SE3       30.16S
HARLAN APT*    SUNNY     82  66  57 CALM      30.18S
PIKE CO APT*     N/A     82  68  63 S3        30.18S
BIG SANDY APT* SUNNY     84  68  58 S3        30.16F
MOREHEAD APT*  MOSUNNY   84  70  61 SW9       30.16S
$$

KYZ035-036-041-042-044-050-067-078-099-201800
...CENTRAL KENTUCKY...

CITY           SKY/WX    TMP DP  RH WIND       PRES   REMARKS
MT STERLING*   PTSUNNY   86  70  58 SW5       30.16S HX  90
FLEMING/MASON* PTSUNNY   87  70  56 SW7       30.14F HX  92
DANVILLE*      PTSUNNY   86  68  54 SW6       30.15S
LEXINGTON      MOSUNNY   86  67  52 W7        30.13F
FRANKFORT      MOSUNNY   87  68  52 S6        30.10F HX  90
LOUISVILLE     PTSUNNY   88  65  46 W6        30.09S HX  90
LEBANON*         N/A     86  70  58 S7        30.12F HX  90
GLASGOW*       SUNNY     89  67  47 CALM      30.12S HX  92
BOWLING GREEN  MOSUNNY   88  68  51 S5        30.11S HX  91
$$

KYZ091>093-OHZ055-061-077-WVZ005-015-034-035-042-201800
...SOUTHERN OHIO/WEST VIRGINIA...

CITY           SKY/WX    TMP DP  RH WIND       PRES   REMARKS
COVINGTON      MOSUNNY   86  71  60 SW12      30.10F HX  91
COLUMBUS       PTSUNNY   83  69  62 S7        30.12S
DAYTON         MOSUNNY   86  68  54 SW12      30.11F
WILMINGTON     MOSUNNY   85  73  67 S10       30.11F HX  91
HUNTINGTON     MOSUNNY   86  67  52 S8        30.12F
CHARLESTON     MOSUNNY   84  66  54 CALM      30.14F
PINEVILLE*     SUNNY     83  67  59 MISG      30.23S
BECKLEY        MOSUNNY   80  63  55 VRB3      30.22F
BLUEFIELD      MOSUNNY   77  61  57 CALM      30.25S
LOGAN CO APT*    N/A     82  64  54 CALM      30.18S
$$

VAZ002-007-008-TNZ017-027-036-066-071-201800
...SOUTHWEST VIRGINIA/EAST TENNESSEE...

CITY           SKY/WX    TMP DP  RH WIND       PRES   REMARKS
WISE*          CLOUDY    79  61  53 CALM      30.25S
JONESVILLE*      N/A     84  66  54 CALM      30.19S
ABINGDON*      SUNNY     85  66  54 CALM      30.21S
BRISTOL        MOSUNNY   85  65  51 CALM      30.17F
MORRISTOWN*    SUNNY     86  66  51 CALM      30.15F
SEVIERVILLE*   SUNNY     88  64  45 E5        30.13F
KNOXVILLE      SUNNY     84  67  56 CALM      30.13F
LAFOLLETTE*    SUNNY     84  68  58 CALM      30.19S
OAK RIDGE      SUNNY     86  65  49 VRB3      30.15F
CROSSVILLE     MOSUNNY   83  65  54 NE6       30.20S
NASHVILLE      PTSUNNY   91  70  49 CALM      30.11F HX  96
$$

...KEY TO REMARKS...
VSB - VISIBILITY IN MILES
WCI - WIND CHILL INDEX
HX  - HEAT INDEX

$$




USA.gov is the U.S. government's official web portal to all federal, state and local government web resources and services.